Погода в Вычегодском

Россия / Архангельская область     61°14′52″N   46°52′57″E
темп.,
°C
ветер,
м/с
пор.,
м/с
влажн.,
%
обл.,
%
осадки,
мм/ч
давл.,
гПа
погр.,
м
18 апреля, вс
вс1800:00+3ссз312855 0.0 1027394
03:00+3ссв488789 0.0 1029712
06:00−1св49755 0.0 1031670
09:00+1св46523 0.0 10331015
12:00+4всв46415 0.0 10341447
15:00+5всв45395 0.0 10341642
18:00+3всв36485 0.0 1035587
21:00−1всв26705 0.0 1036129
19 апреля, пн
пн1900:00−2в27720 0.0 1037174
03:00−2в26725 0.0 1038144
06:00−1в24625 0.0 1038200
09:00+4в23425 0.0 10381217
12:00+6вюв223538 0.0 10371517
15:00+7в22340 0.0 10361564
18:00+5вюв11470 0.0 103514
21:00+1юв21610 0.0 103610
20 апреля, вт
вт2000:000ю21660 0.0 103613
03:00−1ююз12670 0.0 103616
06:00+1ююз12580 0.0 1036108
09:00+6ююз12390 0.0 1035728
12:00+9ююз12330 0.0 10341246
15:00+10ю22310 0.0 10321360
18:00+8ююв22440 0.0 103145
21:00+3юв23580 0.0 103141
21 апреля, ср
ср2100:00+2ююв24660 0.0 103171
03:000юв27730 0.0 1030119
06:00+2юв3106315 0.0 1029308
09:00+8юв51040100 0.0 1027864
12:00+11юв61031100 0.0 10241340
15:00+12юв61433100 0.0 10211561
18:00+10ююв61540100 0.0 10201493
21:00+8ююв61546100 0.0 10181437
22 апреля, чт
чт2200:00+7ююв61455100 0.0 10171226
03:00+4ююв61387100 0.0 10161006
06:00+4ююв61492100 0.1 1016840
09:00+5ю61382100 0.1 10161102
12:00+7ю61371100 0.1 10171536
15:00+7ю51169100 0.2 10191599
18:00+7ю5116794 0.1 1019986
21:00+6ю513785 0.1 1019798